TimeEDT,TemperatureF,Dew PointF,Humidity,Sea Level PressureIn,VisibilityMPH,Wind Direction,Wind SpeedMPH,Gust SpeedMPH,PrecipitationIn,Events,Conditions,WindDirDegrees,DateUTC
12:54 AM,70.0,66.0,87,30.01,10.0,Calm,Calm,-,N/A,,Clear,0,2013-08-30 04:54:00
1:54 AM,70.0,66.0,87,29.99,10.0,Calm,Calm,-,N/A,,Clear,0,2013-08-30 05:54:00
2:54 AM,69.1,66.0,90,29.99,10.0,Calm,Calm,-,N/A,,Clear,0,2013-08-30 06:54:00
3:54 AM,69.1,64.9,87,29.98,10.0,Calm,Calm,-,N/A,,Clear,0,2013-08-30 07:54:00
4:54 AM,70.0,64.9,84,29.97,10.0,Calm,Calm,-,N/A,,Clear,0,2013-08-30 08:54:00
5:54 AM,68.0,64.0,87,29.96,9.0,Calm,Calm,-,N/A,,Clear,0,2013-08-30 09:54:00
6:54 AM,69.1,64.9,87,29.96,9.0,Calm,Calm,-,N/A,,Clear,0,2013-08-30 10:54:00
7:54 AM,69.1,64.9,87,29.96,7.0,Calm,Calm,-,N/A,,Clear,0,2013-08-30 11:54:00
8:54 AM,73.0,66.0,79,29.96,9.0,SSW,6.9,-,N/A,,Clear,210,2013-08-30 12:54:00
9:54 AM,77.0,66.9,71,29.95,10.0,SSW,9.2,-,N/A,,Clear,200,2013-08-30 13:54:00
10:54 AM,81.0,68.0,65,29.93,10.0,South,11.5,-,N/A,,Clear,180,2013-08-30 14:54:00
11:54 AM,84.0,66.9,56,29.92,10.0,SW,10.4,-,N/A,,Clear,220,2013-08-30 15:54:00
12:54 PM,87.1,66.0,49,29.90,10.0,SW,12.7,-,N/A,,Clear,230,2013-08-30 16:54:00
1:54 PM,88.0,66.0,48,29.88,10.0,SW,10.4,19.6,N/A,,Clear,230,2013-08-30 17:54:00
2:54 PM,90.0,68.0,48,29.87,10.0,WSW,8.1,18.4,N/A,,Partly Cloudy,240,2013-08-30 18:54:00
3:54 PM,91.9,69.1,47,29.84,10.0,WSW,11.5,-,N/A,,Partly Cloudy,240,2013-08-30 19:54:00
4:54 PM,91.0,69.1,48,29.82,10.0,SSW,10.4,-,N/A,,Scattered Clouds,200,2013-08-30 20:54:00
5:54 PM,91.9,69.1,47,29.79,10.0,WSW,10.4,-,N/A,,Clear,240,2013-08-30 21:54:00
6:54 PM,90.0,70.0,52,29.78,10.0,SSW,9.2,-,N/A,,Clear,210,2013-08-30 22:54:00
7:54 PM,87.1,71.1,59,29.77,10.0,SSW,8.1,-,N/A,,Clear,200,2013-08-30 23:54:00
8:54 PM,84.9,73.0,67,29.76,10.0,SSW,11.5,-,0.00,Rain,Light Rain,210,2013-08-31 00:54:00
9:25 PM,80.6,71.6,74,29.82,10.0,WNW,20.7,29.9,0.00,Rain,Light Rain,300,2013-08-31 01:25:00
9:54 PM,77.0,72.0,84,29.81,10.0,West,15.0,-,0.00,,Partly Cloudy,260,2013-08-31 01:54:00
10:45 PM,75.2,71.6,89,29.83,9.0,WNW,12.7,-,N/A,,Scattered Clouds,290,2013-08-31 02:45:00
10:54 PM,75.9,72.0,87,29.82,8.0,WNW,12.7,-,N/A,,Scattered Clouds,300,2013-08-31 02:54:00
11:24 PM,75.2,71.6,89,29.82,7.0,NW,10.4,-,N/A,,Mostly Cloudy,310,2013-08-31 03:24:00
11:54 PM,73.9,71.1,91,29.80,6.0,NW,13.8,-,N/A,,Overcast,320,2013-08-31 03:54:00